Showing default

GONETS M 12 (M22), 40553

Orbit data source: Space-Track

GONETS M 12 (M22), 40553 is a payload satellite owned by Gonets (CIS) in LEO that was launched on Tue, 31 Mar 2015 UTC via an ROKOT launch vehicle from the Plesetsk Missile And Space Complex (PKMTR). Payload-class satellites include a variety of spacecraft equipped with specific instruments for various scientific and technological missions. These include communications satellites like Starlink; space stations such as the ISS; scientific satellites like the Hubble; Earth observation satellites from companies like Planet Labs, Umbra, and HawkEye 360; GPS; miniature CubeSats for education and research; and military/defense satellites.

Loading next visibility...
Identifier
40553, 2015-020B
Orbit
LEO
Country
Flag of CISCIS
Related business
Manufacturer
Resehetnev ISS
Mission
Operational Civil Communications
Bus & Motor
STRELA-3M, Unknown motor
Mass
225 kg wet, 225 kg dry
Launch date (UTC)
2015-03-31 (10 years ago)
Launch vehicle
ROKOT
Launch site
Plesetsk Missile And Space Complex (PKMTR)
Object type
Payload
Rocket body
Debris
Shape & HBR
Cyl + 1 Ant, 3.5 m
Radar Cross Section
1.798 m², Large (>1 m²)

Expand to show TLE details & history
Last TLE update: 8 hours ago

TLE from 8 hours ago
0 GONETS M 12 (M22)
1 40553U 15020B   25243.59360771  .00000049  00000-0  27978-3 0  9998
2 40553  82.4887 212.4429 0013457 259.4893 100.4671 12.42859295472751
Epoch: 2025-08-31T14:14Z
TLE epoch observation values (Epoch: 2025-08-31T14:14:47.706Z)
Latitude
0.00004°
Longitude
18.73281°
Altitude
1,499.144 km
Speed
7.114 km/s
True Right ascension
14h 09m 46s
True Declination
0° 00' 00"
Sunlit
Object was in daylight at epoch
Visualization orbit readout
Latitude
Unknown
Longitude
Unknown
Altitude
Unknown
Speed
Unknown
Apparent Right ascension
Unknown
Apparent Declination
Unknown
Sunlit
N/A
Visualization observer readout
Local Sidereal Time
13:53:38
Azimuth
Unknown
Elevation
Unknown
Doppler factor
Unknown
Orbital elements
Apogee altitude
1,502.448 km
Perigee altitude
1,481.267 km
Semi-major axis
7,869.994 km
Eccentricity
0.00135
Inclination
82.4887°
RAAN
212.4429°
Arg. of periapsis
259.4893°
True anomaly
100.61869°
Mean anomaly
100.4671°
Eccentric anomaly
100.5429°
Mean motion
3.10872 °/min
Orbital period
115.8 mins
BSTAR
0.00027978
Loading maneuver chart data...
Computing Atmospheric mass density...
Loading historical data...
Loading historical data...
Loading historical data...
Loading historical data...
Loading historical data...
Loading historical data...
Loading historical data...

Documentation

Showing up to 5 results
|